Tracking 23645 objects as of 21-Sep-2021
HD Live streaming from Space Station
objects crossing your sky now

STARLINK-1545

Track STARLINK-1545 now!
10-day predictions
STARLINK-1545 is classified as:


NORAD ID: 46156
Int'l Code: 2020-057AR
Perigee: 553.2 km
Apogee: 555.5 km
Inclination: 53.1 °
Period: 95.6 minutes
Semi major axis: 6925 km
RCS: Unknown
Launch date: August 18, 2020
Source: United States (US)
Launch site: AIR FORCE EASTERN TEST RANGE (AFETR)
aabbcc
Your satellite tracking list
Your tracking list is empty




NASA's NSSDC Master Catalog

Two Line Element Set (TLE):
1 46156U 20057AR  21264.52918965 -.00002582  00000-0 -15449-3 0  9991
2 46156  53.0563  54.7033 0001705  96.5736 263.5447 15.06403368 61898
Source of the keplerian elements: AFSPC